Regional Weather Roundup
Issued by NWS

Home | Current Version | Previous Version | Graphics & Text | Print | Product List | Glossary On
Versions: 1 2 3 4 5 6 7 8 9 10 11 12 13 14 15 16 17 18 19 20 21 22 23 24 25 26 27 28 29 30 31 32 33 34 35 36 37 38 39 40 41 42 43 44 45 46 47 48 49 50
000
ASUS45 KBOI 280310
RWRID
WEATHER ROUNDUP FOR IDAHO
NATIONAL WEATHER SERVICE BOISE ID
800 PM MST SAT DEC 27 2014

NOTE: "FAIR" INDICATES FEW OR NO CLOUDS BELOW 12000 FEET
WITH NO SIGNIFICANT WEATHER AND/OR OBSTRUCTIONS TO VISIBILITY

IDZ012-014-280400-
SOUTHWEST IDAHO


CITY           SKY/WX    TMP DP  RH WIND       PRES   REMARKS
BOISE          LGT SNOW  30  27  88 SE9       30.20F VSB 1   WCI  22
CALDWELL       CLOUDY    30  25  80 NE8       30.22F WCI  23
MOUNTAIN HOME  MIX PCPN  32  25  74 SE6       30.21F WCI  26
$$

IDZ016-017-280400-
SOUTHCENTRAL IDAHO


CITY           SKY/WX    TMP DP  RH WIND       PRES   REMARKS
BURLEY         CLOUDY    29  16  58 S17       30.17F WCI  17
JEROME         CLOUDY    29  19  66 S8        30.19S WCI  21
TWIN FALLS     CLOUDY    31  17  56 S13       30.20R WCI  21
$$

IDZ019>023-280400-
SOUTHEAST IDAHO


CITY           SKY/WX    TMP DP  RH WIND       PRES   REMARKS
IDAHO FALLS    LGT SNOW  23  20  88 S13       30.17F FOG     WCI  11
POCATELLO      CLOUDY    26  19  74 S23G29    30.19F WCI  11
REXBURG        LGT SNOW  17  15  92 E3        30.16F VSB 3/4
$$

IDZ006-010-011-018-031-032-280400-
CENTRAL IDAHO MOUNTAINS


CITY           SKY/WX    TMP DP  RH WIND       PRES   REMARKS
MCCALL         LGT SNOW  20  18  92 CALM      30.05F FOG
HAILEY         CLOUDY    18   9  68 NW6       30.15F WCI   9
STANLEY          N/A     11   6  81 N3        30.05F
SALMON         CLOUDY    19  14  79 N5        30.08F WCI  13
CHALLIS        CLOUDY    15   8  73 CALM      30.07F
$$

IDZ002-004-006-007-026-280400-
NORTHERN IDAHO


CITY           SKY/WX    TMP DP  RH WIND       PRES   REMARKS
LEWISTON       LGT RAIN  39  31  72 S21G29    29.97R WCI  29
LOWELL           N/A     32  31  96 N3        30.05F
COEUR D`ALENE  CLOUDY    34  30  86 S10       29.87F WCI  26
MULLAN PASS    LGT SNOW  23  19  85 VRB6      29.76F FOG     WCI  16
$$


USA.gov is the U.S. government's official web portal to all federal, state and local government web resources and services.